Miscellaneous Local Product
Issued by NWS Hastings, NE

Home | Current Version | Previous Version | Text Only | Print | Product List | Glossary On
Versions: 1 2 3 4 5 6 7 8 9 10 11 12 13 14 15 16 17 18 19 20 21 22 23 24 25 26 27 28 29 30 31 32 33 34 35 36 37 38 39 40 41 42 43 44 45 46 47 48 49 50
000
AXUS43 KGID 291102
MISGRI

GID CWA HOURLY WEATHER ROUNDUP
NATIONAL WEATHER SERVICE HASTINGS NE
600 AM CDT FRI JUL 29 2016

NOTE: "FAIR" INDICATES FEW OR NO CLOUDS BELOW 12,000 FEET WITH NO
SIGNIFICANT WEATHER AND/OR OBSTRUCTIONS TO VISIBILITY.

...SOUTH CENTRAL NEBRASKA...

CITY           SKY/WX    TMP DP  RH WIND       PRES   REMARKS
GRAND ISLAND   CLOUDY    65  63  93 N5        30.04S
HASTINGS       CLOUDY    64  63  96 CALM      30.05R
ORD            CLEAR     61  59  93 NW3       30.06R
YORK           CLOUDY    64  63  94 N3        30.02S
AURORA         CLEAR     64  64  98 N6        30.02S
LEXINGTON      CLEAR     59  58  95 NW3       30.08S
HOLDREGE       PTCLDY    61  60  96 CALM      30.07S
HEBRON         MOCLDY    64  62  94 CALM      30.02R

...NEBRASKA PANHANDLE...

CITY           SKY/WX    TMP DP  RH WIND       PRES   REMARKS
CHADRON        CLEAR     54  53  97 W3        30.13F
ALLIANCE       PTCLDY    54  53  97 NE5       30.14F
SCOTTSBLUFF    PTCLDY    59  56  89 CALM      30.16S
SIDNEY         CLEAR     56  55  97 W6        30.18F

...WESTERN AND NORTH CENTRAL NEBRASKA...

CITY           SKY/WX    TMP DP  RH WIND       PRES   REMARKS
VALENTINE      NOT AVBL
AINSWORTH      HVY RAIN  61  61 100 N5        30.12S
ONEILL         CLOUDY    64  63  94 NE5       30.09R
BROKEN BOW     PTCLDY    60  59  96 CALM      30.08S
IMPERIAL       CLEAR     62  60  93 NW6       30.12S
NORTH PLATTE   FOG       59  58  96 CALM      30.11R VSB 1/4
MCCOOK         CLEAR     58  57  97 W5        30.08S

...EASTERN NEBRASKA...

CITY           SKY/WX    TMP DP  RH WIND       PRES   REMARKS
NORFOLK        CLOUDY    66  61  84 N7        30.04S
SO SIOUX CITY  PTCLDY    62  59  90 N6        30.03R
TEKAMAH        CLOUDY    65  62  90 N8        30.02R
COLUMBUS       CLOUDY    66  57  72 CALM      30.04R
ALBION         CLOUDY    64  61  91 NW5       30.06R
OMAHA EPPLEY   CLOUDY    67  63  87 N5        30.01R
OFFUTT AFB     CLOUDY    68  64  88 NE6       30.00R
MILLARD        LGT RAIN  70  65  85 NE3       30.01R
LINCOLN        CLOUDY    67  65  93 CALM      30.01S
NEBRASKA CITY  CLOUDY    65  65 100 CALM      30.00R
BEATRICE       CLEAR     62  60  94 CALM      30.00S
FALLS CITY     CLOUDY    67  65  93 N5        29.98R

...NORTHERN KANSAS...

CITY           SKY/WX    TMP DP  RH WIND       PRES   REMARKS
GOODLAND       CLOUDY    61  60  97 SW5       30.09F
HILL CITY      MOCLDY    66  65  96 N3        30.05S FOG
NORTON         MOSUNNY   63  59  88 NW6       30.06R FOG
SMITH CENTER   CLEAR     63  61  94 N5        30.04R
BELOIT         CLOUDY    64  64 100 CALM      30.01R
HAYS           CLOUDY    68  61  77 NW7       30.05R
RUSSELL        LGT RAIN  68  66  93 NW6       30.03R
CONCORDIA      CLEAR     64  62  93 SE5       30.02R
SALINA         CLOUDY    69  67  93 W3        30.02R
TOPEKA         PTCLDY    67  65  93 CALM      29.98R



USA.gov is the U.S. government's official web portal to all federal, state and local government web resources and services.